TimeMST,TemperatureF,Dew PointF,Humidity,Sea Level PressureIn,VisibilityMPH,Wind Direction,Wind SpeedMPH,Gust SpeedMPH,PrecipitationIn,Events,Conditions,WindDirDegrees,DateUTC
12:53 AM,41.0,30.9,67,29.89,10.0,WSW,4.6,-,N/A,,Clear,250,2012-11-20 07:53:00
1:53 AM,35.1,28.9,78,29.89,10.0,Calm,Calm,-,N/A,,Clear,0,2012-11-20 08:53:00
2:53 AM,32.0,27.0,82,29.89,10.0,Calm,Calm,-,N/A,,Clear,0,2012-11-20 09:53:00
3:53 AM,30.0,26.1,85,29.88,10.0,NNE,4.6,-,N/A,,Clear,20,2012-11-20 10:53:00
4:53 AM,28.0,25.0,88,29.88,10.0,Calm,Calm,-,N/A,,Clear,0,2012-11-20 11:53:00
5:53 AM,30.0,26.1,85,29.88,10.0,Calm,Calm,-,N/A,,Clear,0,2012-11-20 12:53:00
6:53 AM,26.1,24.1,92,29.89,10.0,Calm,Calm,-,N/A,,Clear,0,2012-11-20 13:53:00
7:53 AM,27.0,23.0,85,29.90,10.0,Calm,Calm,-,N/A,,Clear,0,2012-11-20 14:53:00
8:53 AM,32.0,27.0,82,29.91,10.0,Calm,Calm,-,N/A,,Clear,0,2012-11-20 15:53:00
9:53 AM,36.0,30.0,79,29.90,10.0,ENE,3.5,-,N/A,,Clear,70,2012-11-20 16:53:00
10:53 AM,37.0,30.9,79,29.89,10.0,Calm,Calm,-,N/A,,Clear,0,2012-11-20 17:53:00
11:53 AM,43.0,32.0,65,29.88,10.0,Calm,Calm,-,N/A,,Clear,0,2012-11-20 18:53:00
12:53 PM,46.0,35.1,66,29.86,10.0,WNW,3.5,-,N/A,,Clear,300,2012-11-20 19:53:00
1:53 PM,50.0,37.0,61,29.86,10.0,West,3.5,-,N/A,,Clear,270,2012-11-20 20:53:00
2:53 PM,46.0,36.0,68,29.85,10.0,Calm,Calm,-,N/A,,Clear,0,2012-11-20 21:53:00
3:53 PM,41.0,34.0,76,29.86,9.0,ENE,4.6,-,N/A,,Clear,60,2012-11-20 22:53:00
4:53 PM,37.9,33.1,83,29.86,10.0,ENE,3.5,-,N/A,,Clear,60,2012-11-20 23:53:00
5:53 PM,36.0,32.0,86,29.88,10.0,ENE,5.8,-,N/A,,Clear,70,2012-11-21 00:53:00
6:53 PM,36.0,32.0,86,29.88,10.0,East,4.6,-,N/A,,Clear,80,2012-11-21 01:53:00
7:53 PM,35.1,30.9,85,29.88,10.0,ENE,5.8,-,N/A,,Clear,60,2012-11-21 02:53:00
8:53 PM,35.1,32.0,89,29.86,10.0,NE,4.6,-,N/A,,Clear,50,2012-11-21 03:53:00
9:53 PM,36.0,32.0,86,29.86,10.0,ENE,5.8,-,N/A,,Partly Cloudy,70,2012-11-21 04:53:00
10:53 PM,35.1,33.1,92,29.85,10.0,ESE,4.6,-,N/A,,Partly Cloudy,110,2012-11-21 05:53:00
11:53 PM,34.0,32.0,92,29.83,10.0,NE,4.6,-,N/A,,Clear,40,2012-11-21 06:53:00